• In Uzbekistan
  • List of Countries
  • For 7 days
  • Water Temperature
  • Satellite Maps
  • Weather Map
  • Weather Widgets
  • user-avatar
    Login

    Hourly Weather Ischgl

    Today, 27 July, Thursday

    Time Temperature Precipitation Wind Pressure Humidity
    00:00 -1°C° 0 mm 2 mps 572 mmHg 95%
    01:00 -1°C° 0 mm 2 mps 572 mmHg 95%
    02:00 -1°C° 0 mm 2 mps 571 mmHg 93%
    03:00 -2°C° 0 mm 2 mps 571 mmHg 91%
    04:00 -2°C° 0 mm 2 mps 571 mmHg 88%
    05:00 +1°C° 0 mm 2 mps 572 mmHg 82%
    06:00 +2°C° 0 mm 2 mps 572 mmHg 77%
    07:00 +4°C° 0 mm 2 mps 573 mmHg 71%
    08:00 +5°C° 0.2 mm 1 mps 574 mmHg 71%
    09:00 +6°C° 0.2 mm 1 mps 574 mmHg 72%
    10:00 +7°C° 0.2 mm 1 mps 574 mmHg 72%
    11:00 +8°C° 0.2 mm 1 mps 575 mmHg 72%
    12:00 +9°C° 0.2 mm 1 mps 575 mmHg 72%
    13:00 +10°C° 0.2 mm 1 mps 576 mmHg 72%
    14:00 +11°C° 0.2 mm 1 mps 576 mmHg 72%
    15:00 +11°C° 0.2 mm 1 mps 576 mmHg 71%
    16:00 +12°C° 0.2 mm 1 mps 576 mmHg 71%
    17:00 +11°C° 0.2 mm 1 mps 576 mmHg 76%
    18:00 +10°C° 0.2 mm 1 mps 575 mmHg 81%
    19:00 +9°C° 0.2 mm 1 mps 575 mmHg 86%
    20:00 +8°C° 0.2 mm 1 mps 575 mmHg 88%
    21:00 +7°C° 0.2 mm 1 mps 575 mmHg 91%
    22:00 +6°C° 0.2 mm 1 mps 575 mmHg 94%
    23:00 +6°C° 0.1 mm 1 mps 574 mmHg 94%

    Tomorrow, 28 July, Friday

    Time Temperature Precipitation Wind Pressure Humidity
    00:00 +6°C° 0.1 mm 1 mps 574 mmHg 94%
    01:00 +5°C° 0.1 mm 1 mps 574 mmHg 94%
    02:00 +5°C° 0 mm 1 mps 574 mmHg 93%
    03:00 +6°C° 0 mm 1 mps 574 mmHg 93%
    04:00 +6°C° 0 mm 1 mps 574 mmHg 92%
    05:00 +6°C° 0.2 mm 1 mps 575 mmHg 91%
    06:00 +7°C° 0.2 mm 1 mps 575 mmHg 90%
    07:00 +8°C° 0.2 mm 1 mps 576 mmHg 88%
    08:00 +9°C° 0.1 mm 1 mps 577 mmHg 82%
    09:00 +11°C° 0.1 mm 1 mps 578 mmHg 76%
    10:00 +12°C° 0.1 mm 1 mps 579 mmHg 71%
    11:00 +13°C° 0.1 mm 1 mps 579 mmHg 68%
    12:00 +14°C° 0.1 mm 2 mps 579 mmHg 65%
    13:00 +15°C° 0.1 mm 2 mps 580 mmHg 62%
    14:00 +15°C° 0.2 mm 2 mps 580 mmHg 64%
    15:00 +15°C° 0.2 mm 2 mps 580 mmHg 66%
    16:00 +15°C° 0.2 mm 2 mps 580 mmHg 67%
    17:00 +14°C° 0.3 mm 2 mps 579 mmHg 74%
    18:00 +13°C° 0.3 mm 2 mps 579 mmHg 81%
    19:00 +12°C° 0.3 mm 1 mps 579 mmHg 87%
    20:00 +11°C° 0.2 mm 1 mps 579 mmHg 90%
    21:00 +9°C° 0.2 mm 1 mps 578 mmHg 94%
    22:00 +7°C° 0.2 mm 0 mps 578 mmHg 97%
    23:00 +8°C° 0.1 mm 1 mps 578 mmHg 96%

    Day after tomorrow, 29 July, Saturday

    Time Temperature Precipitation Wind Pressure Humidity
    00:00 +8°C° 0.1 mm 1 mps 578 mmHg 96%
    01:00 +8°C° 0.1 mm 1 mps 578 mmHg 96%
    02:00 +7°C° 0 mm 1 mps 578 mmHg 95%
    03:00 +7°C° 0 mm 1 mps 578 mmHg 95%
    04:00 +7°C° 0 mm 1 mps 578 mmHg 95%
    05:00 +8°C° 0.1 mm 1 mps 578 mmHg 92%
    06:00 +10°C° 0.1 mm 1 mps 579 mmHg 88%
    07:00 +11°C° 0.1 mm 1 mps 580 mmHg 85%
    08:00 +13°C° 0.3 mm 1 mps 581 mmHg 78%
    09:00 +14°C° 0.3 mm 1 mps 582 mmHg 72%
    10:00 +16°C° 0.3 mm 1 mps 582 mmHg 65%
    11:00 +16°C° 1.3 mm 1 mps 582 mmHg 66%
    12:00 +16°C° 1.3 mm 2 mps 582 mmHg 67%
    13:00 +16°C° 1.3 mm 2 mps 582 mmHg 67%
    14:00 +15°C° 1.9 mm 2 mps 582 mmHg 71%
    15:00 +15°C° 1.9 mm 1 mps 581 mmHg 74%
    16:00 +14°C° 1.9 mm 1 mps 581 mmHg 78%
    17:00 +14°C° 1.2 mm 1 mps 581 mmHg 81%
    18:00 +13°C° 1.2 mm 1 mps 580 mmHg 85%
    19:00 +12°C° 1.2 mm 1 mps 580 mmHg 88%
    20:00 +11°C° 0.8 mm 1 mps 580 mmHg 88%
    21:00 +11°C° 0.8 mm 1 mps 580 mmHg 88%
    22:00 +9°C° 0.8 mm 2 mps 579 mmHg 88%
    23:00 +9°C° 0.8 mm 2 mps 579 mmHg 88%

    30 July, Sunday

    Time Temperature Precipitation Wind Pressure Humidity
    00:00 +9°C° 0.8 mm 2 mps 579 mmHg 88%
    01:00 +9°C° 0.8 mm 2 mps 579 mmHg 88%
    02:00 +9°C° 0.7 mm 2 mps 579 mmHg 88%
    03:00 +9°C° 0.7 mm 2 mps 578 mmHg 87%
    04:00 +8°C° 0.7 mm 2 mps 578 mmHg 87%
    05:00 +9°C° 0.3 mm 2 mps 578 mmHg 85%
    06:00 +10°C° 0.3 mm 2 mps 579 mmHg 84%
    07:00 +10°C° 0.3 mm 2 mps 579 mmHg 82%
    08:00 +13°C° 0.2 mm 2 mps 580 mmHg 75%
    09:00 +15°C° 0.2 mm 2 mps 581 mmHg 67%
    10:00 +16°C° 0.2 mm 2 mps 581 mmHg 60%
    11:00 +16°C° 0.8 mm 1 mps 581 mmHg 61%
    12:00 +16°C° 0.8 mm 1 mps 581 mmHg 63%
    13:00 +16°C° 0.8 mm 1 mps 581 mmHg 64%
    14:00 +16°C° 1.6 mm 1 mps 580 mmHg 68%
    15:00 +15°C° 1.6 mm 1 mps 580 mmHg 72%
    16:00 +15°C° 1.6 mm 1 mps 579 mmHg 75%
    17:00 +14°C° 0.9 mm 1 mps 579 mmHg 79%
    18:00 +13°C° 0.9 mm 1 mps 579 mmHg 82%
    19:00 +12°C° 0.9 mm 1 mps 579 mmHg 85%
    20:00 +12°C° 0.3 mm 1 mps 579 mmHg 87%
    21:00 +10°C° 0.3 mm 2 mps 579 mmHg 89%
    22:00 +9°C° 0.3 mm 2 mps 578 mmHg 90%
    23:00 +8°C° 0.1 mm 2 mps 578 mmHg 91%

    31 July, Monday

    Time Temperature Precipitation Wind Pressure Humidity
    00:00 +8°C° 0.1 mm 2 mps 578 mmHg 92%
    01:00 +8°C° 0.1 mm 2 mps 578 mmHg 92%
    02:00 +7°C° 0 mm 2 mps 578 mmHg 92%
    03:00 +7°C° 0 mm 2 mps 578 mmHg 91%
    04:00 +8°C° 0 mm 1 mps 577 mmHg 91%
    05:00 +9°C° 0 mm 1 mps 578 mmHg 88%
    06:00 +10°C° 0 mm 1 mps 579 mmHg 85%
    07:00 +11°C° 0 mm 1 mps 580 mmHg 82%
    08:00 +13°C° 0 mm 1 mps 581 mmHg 73%
    09:00 +15°C° 0 mm 2 mps 581 mmHg 64%
    10:00 +17°C° 0 mm 2 mps 582 mmHg 55%
    11:00 +18°C° 0 mm 2 mps 583 mmHg 52%
    12:00 +19°C° 0 mm 2 mps 583 mmHg 49%
    13:00 +20°C° 0 mm 2 mps 583 mmHg 46%
    14:00 +20°C° 0 mm 2 mps 583 mmHg 47%
    15:00 +20°C° 0 mm 2 mps 582 mmHg 47%
    16:00 +20°C° 0 mm 2 mps 582 mmHg 48%
    17:00 +18°C° 0.1 mm 2 mps 582 mmHg 56%
    18:00 +17°C° 0.1 mm 2 mps 581 mmHg 64%
    19:00 +15°C° 0.1 mm 2 mps 580 mmHg 72%
    20:00 +14°C° 0 mm 2 mps 580 mmHg 75%
    21:00 +12°C° 0 mm 3 mps 579 mmHg 79%
    22:00 +10°C° 0 mm 3 mps 579 mmHg 82%
    23:00 +10°C° 0 mm 3 mps 579 mmHg 80%

    1 August, Tuesday

    Time Temperature Precipitation Wind Pressure Humidity
    00:00 +10°C° 0 mm 3 mps 579 mmHg 78%
    01:00 +9°C° 0 mm 3 mps 579 mmHg 76%
    02:00 +9°C° 0 mm 3 mps 579 mmHg 77%
    03:00 +8°C° 0 mm 3 mps 578 mmHg 78%
    04:00 +8°C° 0 mm 3 mps 578 mmHg 78%
    05:00 +9°C° 0 mm 3 mps 579 mmHg 75%
    06:00 +10°C° 0 mm 3 mps 579 mmHg 72%
    07:00 +11°C° 0 mm 3 mps 580 mmHg 68%
    08:00 +14°C° 0 mm 3 mps 581 mmHg 59%
    09:00 +17°C° 0 mm 3 mps 582 mmHg 50%
    10:00 +19°C° 0 mm 3 mps 583 mmHg 40%
    11:00 +20°C° 0 mm 4 mps 583 mmHg 39%
    12:00 +21°C° 0 mm 4 mps 583 mmHg 38%
    13:00 +21°C° 0 mm 4 mps 583 mmHg 36%
    14:00 +21°C° 0.1 mm 4 mps 583 mmHg 40%
    15:00 +20°C° 0.1 mm 4 mps 582 mmHg 44%
    16:00 +19°C° 0.1 mm 4 mps 582 mmHg 48%
    17:00 +18°C° 0.7 mm 3 mps 581 mmHg 58%
    18:00 +16°C° 0.7 mm 3 mps 580 mmHg 68%
    19:00 +14°C° 0.7 mm 2 mps 580 mmHg 78%
    20:00 +13°C° 0.3 mm 2 mps 579 mmHg 81%
    21:00 +10°C° 0.3 mm 2 mps 579 mmHg 84%
    22:00 +9°C° 0.3 mm 2 mps 579 mmHg 88%
    23:00 +9°C° 0.5 mm 2 mps 578 mmHg 88%
    Show more